Flag for Belize Weather past 2 weeks in Belize City, Belize

Now
82 °F

Passing clouds.


Feels Like: 92 °F
Forecast: 81 / 89 °F
Wind: N/A

Location: Belize / Phillip Goldston Intl. Airport

Current Time: Aug 29, 2015 at 10:24:41 PM

Latest Report: Aug 29, 2015 at 8:00 PM


Visibility: N/A

Pressure: 29.90 "Hg

Humidity: 89%

Dew point: 79 °F

Location of Belize CityLocation

Historic Weather in Belize City — Graph

°F

Belize City temperature yesterday

Maximum temperature yesterday: 91 °F (at 11:00 AM)
Minimum temperature yesterday: 77 °F (at 6:00 AM)
Average temperature yesterday: 85 °F

Past Weeks' High & Low Weather Summary

 TemperatureHumidityPressure
High93 °F (Aug 24, 1:00 PM)100% (Aug 24, 6:00 AM)29.98 "Hg (Aug 24, 6:00 AM)
Low75 °F (Aug 24, 6:00 AM)56% (Aug 24, 1:00 PM)29.84 "Hg (Aug 24, 3:00 PM)
Average86 °F75%29.92 "Hg
* Reported Aug 15 5:00 AM — Aug 29 8:00 PM, Belize City, Weather by CustomWeather, © 2015

Note: Actual official high and low records may vary slightly from our data, if they occured in-between our weather recording intervals... More about our weather records

Advertising

Belize City weather history for previous 24 hours

 ConditionsComfort  
Time TempWeatherWind HumidityBarometerVisibility
8:00 PM
Sat, Aug 29
82 °FPassing clouds.N/A89%29.90 "HgN/A
7:00 PM84 °FPassing clouds.2 mph84%29.87 "HgN/A
6:00 PM86 °FPassing clouds.3 mph79%29.85 "HgN/A
5:00 PM88 °FPassing clouds.6 mph75%29.84 "HgN/A
4:00 PM90 °FPassing clouds.7 mph71%29.85 "HgN/A
3:00 PM90 °FPassing clouds.9 mph67%29.87 "HgN/A
2:00 PM91 °FPassing clouds.8 mph67%29.88 "HgN/A
1:00 PM91 °FScattered clouds.10 mph63%29.93 "HgN/A
12:00 PM91 °FScattered clouds.10 mph63%29.93 "HgN/A
11:00 AM90 °FScattered clouds.12 mph63%29.94 "HgN/A
10:00 AM88 °FPartly sunny.7 mph70%29.96 "HgN/A
9:00 AM84 °FScattered clouds.2 mph84%29.96 "HgN/A
8:00 AM79 °FScattered clouds.3 mph94%29.95 "HgN/A
7:00 AM77 °FFog.5 mph100%29.94 "Hg0 mi
6:00 AM77 °FFog.3 mph94%29.93 "Hg1 mi
5:00 AM77 °FPassing clouds.3 mph94%29.91 "HgN/A
Weather by CustomWeather, © 2015

See weather overviewHow to use our weather pages